International Skating Union - Official Site

ISU World Cup Berlin
December 5-7, 2014

Draw | Lap Times | Index | World Cup

Referee: Ekaterina  PILSHCHIKOVA  (RUS)
Starter: John Magne  ELIASSEN  (NOR)
StartTime: EndTime: Air Temp: Ice Temp: Humidity:
16:00 16:42 14.5℃ -5.8℃ 29.8%
Result 3000m Ladies Division A
Rankings as of Dec 7 2014 4:36PM
Rank: No.: Name: Nation: Time: Behind: Points:
1 84 Ireen  Wüst NED NED 4:01.55200m - 19.57 - (19.5)
600m - 50.16 - (30.5)
1000m - 1:20.96 - (30.8)
1400m - 1:52.40 - (31.4)
1800m - 2:23.99 - (31.5)
2200m - 2:55.89 - (31.9)
2600m - 3:28.54 - (32.6)
3000m - 4:01.55 - (33.0)
100
2 73 Marije  Joling NED NED 4:03.34200m - 19.56 - (19.5)
600m - 50.60 - (31.0)
1000m - 1:21.56 - (30.9)
1400m - 1:53.08 - (31.5)
1800m - 2:24.89 - (31.8)
2200m - 2:57.32 - (32.4)
2600m - 3:30.09 - (32.7)
3000m - 4:03.34 - (33.2)
1.79 80
3 26 Martina  Sábliková CZE CZE 4:05.36200m - 20.28 - (20.2)
600m - 51.23 - (30.9)
1000m - 1:23.21 - (31.9)
1400m - 1:55.28 - (32.0)
1800m - 2:27.35 - (32.0)
2200m - 2:59.80 - (32.4)
2600m - 3:32.35 - (32.5)
3000m - 4:05.36 - (33.0)
3.81 70
4 96 Olga  Graf RUS RUS 4:05.53200m - 21.26 - (21.2)
600m - 52.21 - (30.9)
1000m - 1:23.85 - (31.6)
1400m - 1:55.93 - (32.0)
1800m - 2:28.14 - (32.2)
2200m - 3:00.54 - (32.4)
2600m - 3:32.83 - (32.2)
3000m - 4:05.53 - (32.7)
3.98 60
5 83 Jorien  Voorhuis NED NED 4:05.95200m - 19.88 - (19.8)
600m - 51.09 - (31.2)
1000m - 1:23.25 - (32.1)
1400m - 1:55.75 - (32.5)
1800m - 2:27.76 - (32.0)
2200m - 3:00.00 - (32.2)
2600m - 3:32.58 - (32.5)
3000m - 4:05.95 - (33.3)
4.40 50
6 38 Claudia  Pechstein GER GER 4:07.64200m - 20.42 - (20.4)
600m - 52.35 - (31.9)
1000m - 1:24.46 - (32.1)
1400m - 1:56.80 - (32.3)
1800m - 2:29.25 - (32.4)
2200m - 3:01.76 - (32.5)
2600m - 3:34.51 - (32.7)
3000m - 4:07.64 - (33.1)
6.09 45
7 6 Ivanie  Blondin CAN CAN 4:09.35200m - 20.38 - (20.3)
600m - 51.42 - (31.0)
1000m - 1:23.48 - (32.0)
1400m - 1:55.21 - (31.7)
1800m - 2:27.45 - (32.2)
2200m - 3:00.20 - (32.7)
2600m - 3:34.24 - (34.0)
3000m - 4:09.35 - (35.1)
7.80 40
8 52 Nana  Takagi JPN JPN 4:10.25200m - 20.06 - (20.0)
600m - 51.71 - (31.6)
1000m - 1:24.21 - (32.5)
1400m - 1:56.93 - (32.7)
1800m - 2:29.87 - (32.9)
2200m - 3:03.14 - (33.2)
2600m - 3:36.62 - (33.4)
3000m - 4:10.25 - (33.6)
8.70 35
9 36 Bente  Kraus GER GER 4:13.69200m - 21.16 - (21.1)
600m - 53.59 - (32.4)
1000m - 1:25.93 - (32.3)
1400m - 1:58.74 - (32.8)
1800m - 2:31.91 - (33.1)
2200m - 3:05.48 - (33.5)
2600m - 3:39.29 - (33.8)
3000m - 4:13.69 - (34.4)
12.14 30
10 59 Bo-Reum  Kim KOR KOR 4:13.78200m - 21.47 - (21.4)
600m - 54.06 - (32.5)
1000m - 1:26.89 - (32.8)
1400m - 1:59.85 - (32.9)
1800m - 2:32.87 - (33.0)
2200m - 3:06.65 - (33.7)
2600m - 3:40.52 - (33.8)
3000m - 4:13.78 - (33.2)
12.23 25
11 93 Anna  Chernova RUS RUS 4:15.63200m - 21.32 - (21.3)
600m - 53.88 - (32.5)
1000m - 1:26.65 - (32.7)
1400m - 1:59.55 - (32.9)
1800m - 2:32.97 - (33.4)
2200m - 3:06.73 - (33.7)
2600m - 3:41.21 - (34.4)
3000m - 4:15.63 - (34.4)
14.08 21
12 43 Shoko  Fujimura JPN JPN 4:15.90200m - 21.17 - (21.1)
600m - 53.71 - (32.5)
1000m - 1:26.47 - (32.7)
1400m - 1:59.63 - (33.1)
1800m - 2:33.03 - (33.4)
2200m - 3:07.15 - (34.1)
2600m - 3:41.25 - (34.1)
3000m - 4:15.90 - (34.6)
14.35 18
13 2 Jelena  Peeters BEL BEL 4:16.15200m - 20.40 - (20.4)
600m - 52.53 - (32.1)
1000m - 1:26.15 - (33.6)
1400m - 1:59.33 - (33.1)
1800m - 2:32.83 - (33.5)
2200m - 3:06.86 - (34.0)
2600m - 3:41.29 - (34.4)
3000m - 4:16.15 - (34.8)
14.60 16
14 45 Ayaka  Kikuchi JPN JPN 4:16.20200m - 20.66 - (20.6)
600m - 53.03 - (32.3)
1000m - 1:25.40 - (32.3)
1400m - 1:58.03 - (32.6)
1800m - 2:31.41 - (33.3)
2200m - 3:05.76 - (34.3)
2600m - 3:40.84 - (35.0)
3000m - 4:16.20 - (35.3)
14.65 14
15 100 Yuliya  Skokova RUS RUS 4:16.60200m - 20.56 - (20.5)
600m - 53.18 - (32.6)
1000m - 1:26.07 - (32.8)
1400m - 1:59.07 - (33.0)
1800m - 2:32.43 - (33.3)
2200m - 3:06.07 - (33.6)
2600m - 3:40.81 - (34.7)
3000m - 4:16.60 - (35.7)
15.05 12
16 32 Stephanie  Beckert GER GER 4:17.96200m - 21.50 - (21.5)
600m - 54.64 - (33.1)
1000m - 1:27.66 - (33.0)
1400m - 2:01.17 - (33.5)
1800m - 2:34.84 - (33.6)
2200m - 3:08.99 - (34.1)
2600m - 3:43.75 - (34.7)
3000m - 4:17.96 - (34.2)
16.41 10